RH
24 35 42 48 47 49 52 48 54 68 75 77 77 80 79 86 90 90 82 77 57 56 59 60 58 58 58 56 63 73 75 79 75 74 70 69 62 62 59 55 54 48 49 55
26 36 37 40 44 47 45 46 67 72 73 75 78 81 82 78 82 81 88 81 78 66 60 59 56 57 57 53 54 60 71 73 75 71 67 66 66 66 61 57 54 48 46 52
30 32 33 35 38 44 45 45 64 66 74 76 79 86 89 87 88 85 91 85 80 61 68 58 57 55 53 51 48 52 62 67 72 71 69 67 61 59 58 57 52 50 46 47
32 30 31 32 33 38 43 45 49 58 61 64 74 73 79 86 89 87 90 86 77 70 66 67 62 56 49 51 47 46 55 64 70 76 70 66 61 60 60 57 58 51 46 43
28 30 27 30 31 35 36 42 45 50 54 54 65 61 65 77 84 83 83 85 80 79 76 62 58 59 57 52 48 46 51 55 63 74 75 68 67 68 62 59 59 55 49 42
27 24 27 23 24 28 41 44 51 54 52 51 53 55 59 72 68 74 78 82 80 78 76 71 70 59 58 53 51 48 50 53 60 68 75 73 76 74 66 53 48 49 48 47
24 25 23 24 23 24 36 39 58 62 62 51 53 57 49 61 64 67 69 76 83 76 74 63 69 59 59 59 55 48 50 52 53 60 69 80 75 70 61 53 51 50 49 48
23 20 19 22 24 22 27 31 38 48 54 46 60 57 48 59 62 61 66 75 85 86 72 58 61 56 62 61 56 55 49 50 51 55 59 67 76 77 63 58 56 50 48 55
29 24 21 24 24 24 30 32 34 46 49 47 56 56 55 58 62 62 67 72 80 82 73 61 60 61 70 62 60 54 48 50 50 51 58 60 69 74 69 66 57 54 48 47
31 28 26 27 30 26 28 27 33 45 53 48 60 58 47 59 62 65 67 69 76 78 80 76 68 63 62 60 58 54 50 52 52 53 55 63 70 76 74 69 60 51 50 48
36 32 32 30 32 33 30 32 32 38 39 39 49 49 52 60 60 67 71 73 73 73 79 79 74 66 63 62 63 52 54 53 53 55 53 60 70 74 77 75 71 63 54 52
40 37 36 34 34 33 32 32 33 35 40 40 43 40 50 59 60 66 75 79 74 74 70 75 78 78 73 69 67 62 65 60 61 61 58 54 64 79 74 79 82 77 72 66
41 40 37 39 36 34 34 31 31 36 42 44 39 39 49 58 63 69 75 80 76 77 73 71 77 77 80 81 82 81 66 65 57 61 61 51 55 65 71 76 82 81 79 77
39 39 40 37 44 40 35 33 34 35 38 45 35 45 50 55 64 70 77 80 81 77 76 75 73 73 74 77 83 90 89 80 64 66 72 64 50 57 59 63 66 72 75 74
37 38 37 39 40 42 45 40 43 40 39 41 43 43 39 51 65 73 77 80 77 77 78 70 65 65 71 77 89 91 89 81 75 85 77 72 62 47 51 53 58 62 64 56
36 43 40 40 42 46 44 48 50 49 47 48 47 48 47 50 63 72 75 78 77 80 78 75 74 74 73 78 88 95 98 96 95 91 87 76 83 51 42 43 50 55 56 58
41 43 46 47 51 51 48 46 52 60 57 55 48 49 51 52 56 64 73 79 77 76 77 74 72 76 77 79 85 98 98 97 95 95 94 85 90 81 55 55 50 53 56 59
50 51 47 49 53 59 54 51 51 56 67 63 56 53 55 60 63 66 68 72 75 78 77 78 74 77 77 78 83 92 90 90 83 94 92 95 93 93 78 66 76 74 70 67
47 55 55 49 48 57 55 55 53 55 56 55 58 59 64 66 68 72 69 68 71 76 77 75 78 80 82 80 83 96 98 90 77 80 86 87 91 87 85 81 86 81 85 82
47 54 57 60 51 49 49 51 55 56 56 58 65 65 68 70 72 74 80 81 80 79 80 83 85 86 85 83 86 87 93 97 87 91 94 93 88 77 69 71 67 70 85 87
33 37 46 52 50 47 48 45 54 57 54 55 63 69 76 78 73 78 87 87 89 83 83 86 86 86 84 82 84 88 88 91 88 86 81 76 72 66 64 63 63 63 65 71
32 31 31 33 39 41 45 40 39 46 57 64 66 71 81 77 73 79 84 87 84 83 87 90 90 84 81 77 78 77 79 79 78 75 68 66 64 59 56 54 54 52 51 53
48 38 38 35 35 37 40 45 44 41 40 50 66 70 71 79 83 87 89 84 83 82 83 83 81 81 75 69 66 60 64 62 62 61 58 55 51 49 48 48 48 44 41 41
55 56 51 46 42 45 41 41 46 47 47 48 59 70 71 74 82 89 92 87 86 84 82 81 80 77 71 67 63 63 64 62 56 53 50 48 47 45 46 43 40 38 38 35
59 56 56 54 51 52 48 45 39 36 44 55 61 66 72 75 81 85 90 91 89 87 84 82 78 75 73 68 60 51 43 41 41 45 49 49 47 44 42 39 38 36 33 31
52 55 55 55 56 54 51 49 47 43 35 40 52 61 74 79 78 83 87 96 93 93 85 81 77 74 71 69 64 58 52 47 46 43 39 36 35 37 37 34 32 31 29 28